Location: Sternwarte ZA, Rosenfeld-Brittheim
(48.2889°N, 8.6789°E)
Time: 07:06:59
(UTC+02:00)

Tiangong 2 - Visible Passes

Search period start: 16 July 2018 00:00
Search period end: 26 July 2018 00:00
Orbit: 386 x 394 km, 42.8° (Epoch: 15 July)

Date Brightness Start Highest point End Pass type
(mag) Time Alt. Az. Time Alt. Az. Time Alt. Az.
16 Jul 2.1 22:04:56 10° SW 22:07:43 28° S 22:10:32 10° ESE visible
16 Jul 2.7 23:41:28 10° WSW 23:43:13 22° SW 23:43:13 22° SW visible
17 Jul 2.1 22:43:49 10° WSW 22:46:38 28° S 22:47:59 20° SE visible
18 Jul 2.8 23:23:03 10° WSW 23:25:02 19° SSW 23:25:02 19° SSW visible
19 Jul 2.5 22:25:16 10° WSW 22:27:56 24° SSW 22:29:45 15° SE visible
20 Jul 3.2 23:04:53 10° WSW 23:06:40 14° SSW 23:06:46 14° SSW visible
21 Jul 2.9 22:06:50 10° WSW 22:09:12 19° SSW 22:11:28 10° SSE visible
